User: anonymous   Login
Location: Unspecified
(0.0000°N, 0.0000°E)
Time: 16:57:49
(UTC+00:00)
Language:

Max Valier Satellite - Orbit

View from above orbital plane
View from above orbital plane
View from above satellite
View from above satellite

Ground track
Ground track

The orbit data is extracted from the following two-line orbital elements,

1 42778U 17036P   18288.21088290  .00001217  00000-0  56978-4 0  9992
2 42778  97.3903 345.8589 0012850  17.1008 343.0658 15.21546213 72756
Epoch (UTC): 15 October 2018 05:03:40
Eccentricity: 0.0012850
inclination: 97.3903°
perigee height: 492 km
apogee height: 510 km
right ascension of ascending node: 345.8589°
argument of perigee: 17.1008°
revolutions per day: 15.21546213
mean anomaly at epoch: 343.0658°
orbit number at epoch: 7275

The dashed part of the orbit path shows where the satellite is in the earth's shadow,  

DLR